Location: Asheville, NC
(35.6000°N, 82.5500°W)
Time: 10:50:42

Vanguard 2 - Pass Details

Date: 10 December 2017
Orbit: 553 x 2939 km, 32.9° (Epoch: 22 March)

Event Time Altitude Azimuth Distance (km) Brightness Sun altitude
Rises 17:17:28 0° 248° (WSW) 3,828 14.0 -0.9°
Reaches altitude 10° 17:20:43 10° 243° (WSW) 2,550 12.5 -1.5°
Maximum altitude 17:26:08 49° 170° (S) 867 8.0 -2.4°
Drops below altitude 10° 17:30:08 10° 95° (E) 1,883 9.0 -3.2°
Enters shadow 17:31:52 - 89° (E) 2,586 9.7 -3.5°
Sets 17:32:12 0° 89° (E) 2,724 - -3.5°
